Location: Dąbrowa Górnicza
(50.3177°N, 19.1898°E)
Time: 22:42:01
(UTC+01:00)

ISS - Visible Passes

Search period start: 23 January 2019 00:00
Search period end: 02 February 2019 00:00
Orbit: 404 x 410 km, 51.6° (Epoch: 24 January)

Date Brightness Start Highest point End Pass type
(mag) Time Alt. Az. Time Alt. Az. Time Alt. Az.
23 Jan -1.7 18:39:41 10° SSW 18:41:05 20° S 18:41:05 20° S visible
24 Jan -2.0 17:49:00 10° S 17:51:24 19° SE 17:52:04 18° SE visible
24 Jan -0.7 19:24:14 10° WSW 19:24:47 14° WSW 19:24:47 14° WSW visible
25 Jan -1.4 16:58:58 10° SSE 17:00:16 12° SE 17:01:34 10° ESE visible
25 Jan -3.1 18:32:59 10° SW 18:35:41 44° S 18:35:41 44° S visible
26 Jan -2.8 17:41:54 10° SW 17:44:55 34° SSE 17:46:30 21° E visible
26 Jan -1.2 19:18:00 10° W 19:19:14 21° W 19:19:14 21° W visible
27 Jan -4.0 18:26:35 10° WSW 18:29:54 82° SSE 18:30:00 80° SE visible
28 Jan -3.6 17:35:16 10° WSW 17:38:32 60° SSE 17:40:43 19° E visible
28 Jan -1.6 19:11:47 10° W 19:13:26 27° W 19:13:26 27° W visible
29 Jan -3.8 18:20:19 10° W 18:23:37 75° N 18:24:07 59° NE visible
30 Jan -3.8 17:28:51 10° WSW 17:32:10 89° NNW 17:34:47 15° ENE visible
30 Jan -2.1 19:05:31 10° W 19:07:30 33° WNW 19:07:30 33° WNW visible
31 Jan -3.7 18:14:02 10° W 18:17:20 67° N 18:18:09 45° ENE visible
31 Jan -0.3 19:50:38 10° WNW 19:50:52 12° WNW 19:50:52 12° WNW visible
01 Feb -3.7 17:22:32 10° W 17:25:50 71° N 17:28:49 12° ENE visible
01 Feb -2.7 18:59:10 10° WNW 19:01:32 43° WNW 19:01:32 43° WNW visible
